TimeEST,TemperatureF,Dew PointF,Humidity,Sea Level PressureIn,VisibilityMPH,Wind Direction,Wind SpeedMPH,Gust SpeedMPH,PrecipitationIn,Events,Conditions,WindDirDegrees,DateUTC
12:54 AM,28.0,25.0,88,30.37,-9999.0,South,15.0,-,N/A,,Unknown,190,2013-01-08 05:54:00
1:54 AM,28.0,25.0,88,30.36,-9999.0,South,16.1,-,N/A,,Unknown,180,2013-01-08 06:54:00
2:54 AM,28.9,25.0,85,30.35,-9999.0,SSW,19.6,-,N/A,,Unknown,200,2013-01-08 07:54:00
3:54 AM,30.0,23.0,75,30.33,-9999.0,SSW,21.9,28.8,N/A,,Unknown,200,2013-01-08 08:54:00
4:54 AM,32.0,24.1,73,30.32,-9999.0,SSW,25.3,33.4,N/A,,Unknown,210,2013-01-08 09:54:00
5:54 AM,32.0,25.0,75,30.32,-9999.0,SSW,24.2,31.1,N/A,,Unknown,210,2013-01-08 10:54:00
6:54 AM,32.0,25.0,75,30.33,-9999.0,SSW,25.3,31.1,N/A,,Unknown,210,2013-01-08 11:54:00
7:54 AM,32.0,25.0,75,30.35,-9999.0,SSW,20.7,29.9,N/A,,Unknown,210,2013-01-08 12:54:00
8:54 AM,35.1,26.1,70,30.36,-9999.0,SW,19.6,29.9,N/A,,Unknown,220,2013-01-08 13:54:00
9:54 AM,39.0,25.0,57,30.35,-9999.0,WSW,24.2,34.5,N/A,,Unknown,240,2013-01-08 14:54:00
10:54 AM,39.9,26.1,58,30.34,-9999.0,SW,19.6,35.7,N/A,,Unknown,230,2013-01-08 15:54:00
11:54 AM,42.1,26.1,53,30.32,-9999.0,SW,15.0,26.5,N/A,,Unknown,230,2013-01-08 16:54:00
12:54 PM,43.0,26.1,51,30.29,-9999.0,SW,15.0,25.3,N/A,,Unknown,230,2013-01-08 17:54:00
1:54 PM,44.1,26.1,49,30.29,-9999.0,SW,12.7,19.6,N/A,,Unknown,230,2013-01-08 18:54:00
2:54 PM,44.1,25.0,47,30.31,-9999.0,WSW,9.2,19.6,N/A,,Unknown,250,2013-01-08 19:54:00
3:54 PM,44.1,25.0,47,30.31,-9999.0,WSW,10.4,17.3,N/A,,Unknown,240,2013-01-08 20:54:00
4:54 PM,42.1,25.0,51,30.32,-9999.0,SW,11.5,-,N/A,,Unknown,220,2013-01-08 21:54:00
5:54 PM,41.0,26.1,55,30.34,-9999.0,SW,11.5,-,N/A,,Unknown,230,2013-01-08 22:54:00
6:54 PM,39.0,26.1,60,30.35,-9999.0,SW,15.0,-,N/A,,Unknown,220,2013-01-08 23:54:00
7:54 PM,39.0,27.0,62,30.37,-9999.0,SW,11.5,-,N/A,,Unknown,230,2013-01-09 00:54:00
8:54 PM,37.0,27.0,67,30.37,-9999.0,WSW,9.2,-,N/A,,Unknown,240,2013-01-09 01:54:00
9:54 PM,36.0,27.0,70,30.38,-9999.0,WSW,10.4,-,N/A,,Unknown,250,2013-01-09 02:54:00
10:54 PM,35.1,26.1,70,30.37,-9999.0,West,12.7,-,N/A,,Unknown,260,2013-01-09 03:54:00
11:54 PM,35.1,26.1,70,30.37,-9999.0,West,13.8,-,N/A,,Unknown,270,2013-01-09 04:54:00